Погода Ремонтное

Погода Ремонтное : погода сейчас, прогноз погоды и архив. Всё, что Вы хотите узнать о погоде Ремонтное!

Поиск расширенной информации на нашем сайте:

Другие новости

Новости СМИ2

Главная страница сайта

Новости сайта

03.07.2017

Напоминаем, что на нашем специализированном сайте Метеоцентр.Азия вы можете получить высокодетализированные автоматические прогнозы погоды по пунктам России, СНГ и мира в авиационном формате (включающие направление и скорость ветра, видимость, явления погоды, количество и форму облачности, нижнюю и верхнюю границу облачности).


Погода Ремонтное - сегодня

Время (UTC), дата Ветер
(°,м/с) 
Видим.   Явления Облачность Т
(°С)
Тd
(°С)
f(%) Тe
(°С)
Pmin
(гПа)
dP
(гПа)
Po
(мм)
O2
(г/м3)
Тmin Tmax R s Состояние
почвы
00 18.08.17 100 (В) 10 км    3/0 верхняя 
[Ci fib]
+19.5 +7.1 44 +21  1016.5  0.1  753  282           
03 18.08.17 090 (В) 10 км    8/3 600 м средняя, верхняя 
[Sc|Ac trans|Ci fib]
+18.2 +3.8 38 +19  1017  0.5  753  284  +17.8        сухая 
06 18.08.17 080 (В) 6-11{13}  20000 м    3/0 верхняя 
[Ci fib]
+28.7 +0.2 16 +29  1016.8  0.2  754  275           
09 18.08.17 100 (В) 6-10{13}  20000 м    8/0 средняя, верхняя 
[Ac trans|Ci fib]
+32.1 -1.3 12 +32  1016.3  -0.4  753  272           
12 18.08.17 090 (В) 5-10{13}  20000 м    8/0 средняя, верхняя 
[Ac trans|Ci fib]
+34 -2.1 10 +34  1015.3  -0.9  753  270           
15 18.08.17 100 (В) 6-12  10 км    8/0 средняя, верхняя 
[Ac lent|Ci fib]
+32.4 +0 13 +32  1015.1  -0.2  752  271    +34.5       
18 18.08.17 150 (ЮВ) 2{12}  10 км    ясно 
+24.7 +5.8 30 +25  1017.6  2.1  754  278           
21 18.08.17 100 (В) 10 км    ясно 
+17.9 +11.3 65 +22  1018.1  0.2  754  283           
00 19.08.17 230 (ЮЗ) 10 км    ясно 
+18.3 +9.6 57 +21  1018.5  0.4  754  283           
03 19.08.17 тихо ()   10 км    6/0 средняя, верхняя 
[Ac trans|Ci fib]
+15.4 +10.3 72 +17  1018.8  0.2  755  286  +14.4        сухая 
06 19.08.17 120 (ЮВ) 20000 м    4/0 средняя, верхняя 
[Ac trans|Ci fib]
+29.1 +4.4 21 +29  1018.6  0.4  755  274           
09 19.08.17 110 (В) 20000 м    9/0 средняя, верхняя 
[Ac trans|Cc]
+32.2 -1 12 +32  1017.9  -0.6  754  272           
12 19.08.17 110 (В) 5{10}  20000 м    9/0 верхняя 
[Cc]
+33.3 -1.2 11 +33  1016.7  -1.2  754  271           
15 19.08.17 110 (В) 4{11}  20000 м    9/0 средняя, верхняя 
[Ac trans|Cc]
+32.2 -1 12 +32  1016.7  754  272    +34.3       
18 19.08.17 100 (В) 20000 м    3/0 верхняя 
[Ci fib]
+26.2 +0.5 19 +26  1018  1.1  754  277           
21 19.08.17 140 (ЮВ) 20000 м    ясно 
+21.4 +2.5 29 +21  1018.1  -0.1  754  281           
00 20.08.17 170 (Ю) 20000 м    9/9 300 м 
[Sc diur, vesp]
+18.8 +1.6 32 +20  1018.2  -0.1  754  284           
03 20.08.17 080 (В) 10 км    8/0 средняя 
[Ac lent]
+21.2 +4.1 33 +21  1018.2  0.2  754  281  +16.5        сухая 
06 20.08.17 080 (В) 6-11{13}  20000 м    9/6 600 м средняя, верхняя 
[Sc diur, vesp|Ac trans|Ci fib]
+29 +4.2 21 +29  1017.8  -0.1  754  274           
09 20.08.17 090 (В) 7-12{14}  20000 м    9/8 600 м кучево-дожд., средняя 
[Cb cap|Ac trans]
+29.6 +7.3 25 +30  1017.6  -0.1  754  273           
12 20.08.17 100 (В) 6-11{13}  20000 м    9/4 600 м средняя 
[Sc diur, vesp|Ac lent]
+31.4 +4.7 19 +31  1016.3  -1.3  753  272           
15 20.08.17 110 (В) 4000 м  пыльный позёмок  9/6 300 м кучево-дожд., средняя, верхняя 
[Cb cap|Ac cuf|Ci fib]
+30.8 +5.8 21 +31  1014.9  -1.4  752  271    +32       
18 20.08.17 110 (В) 3{16}  10 км    10/10 600 м кучево-дожд. 
[Cb cap]
+25.4 +10.6 39 +27  1017.5  2.4  754  276           
21 20.08.17 160 (Ю) 3{10}  10 км    10/8 600 м кучево-дожд., верхняя 
[Cb cap|Ci]
+24.7 +6.7 32 +25  1018.1  0.5  754  278           
00 21.08.17 070 (В) 10 км  {ливн. осадки}  10/10 600 м кучево-дожд. 
[Cb cap]
+23.3 +7.2 35 +23  1017.3  -0.8  754  279           
Время (UTC), дата Ветер
(°,м/с) 
Видим.   Явления Облачность Т
(°С)
Тd
(°С)
f(%) Тe
(°С)
Pmin
(гПа)
dP
(гПа)
Po
(мм)
O2
(г/м3)
Тmin Tmax R s Состояние
почвы

Для получения пояснительной информации подведите курсор к названию столбца.

ПОГОДА Ремонтное - архив

Всё, что Вы хотите узнать о погоде Ремонтное - удобно и подробно!

Выберите нужную дату (начиная с 1 января 2015* года) и нажмите кнопку "Найти".
Будут отображены архивные сводки погоды по пункту Ремонтное, начиная с указанной даты.


Отображать данные в формате CSV (для использования в таблицах Excel)


Внимание! Наш архив погоды предназначен исключительно для личного некоммерческого использования в познавательных целях. Если Вам необходимы официальные справки о состоянии погоды (для производственных, юридических, коммерческих и т.п. целей), обращайтесь в органы Росгидромета.

*Примечание: данная дата относится к архиву по метеостанциям СССР (Россия, СНГ, Балтия).
Архив по метеостанциям Зарубежной Европы и Азии (кроме Китая) хранится 10 дней, по другим регионам земного шара (Китай, Африка, Америка, Австралия, Океания) - 1 день.

Ремонтное - район местоположения метеостанции


Название, широта, долгота, высота метеостанции:
Ремонтное 46.6°ш. 43.7°д. 106 м над ур. моря [Российская Федерация]

Дополнительная информация

В oтличие oт бoльшинства пoгoдных сайтoв мы публикуем пoдрoбную метеoинфoрмацию в детальнoм прoфессиoнальнoм фoрмате.

Характеристики температуры и влажнoсти вoздуха измеряются на высoте 2 м в тени вдали oт зданий и деревьев.
Скoрoсть ветра измеряется на высoте 10 м (на урoвне рoста челoвека скoрoсть ветра ниже в 1.5-2 раза). Если метеoстанция нахoдится в гoрoде или в лесу, тo скoрoсть ветра занижена на 2-4 м/с пo сравнению с oткрытым местoм. Скoрoсть ветра над акватoриями крупных рек и oзёр, а также на вершинах хoлмoв на 2-5 м/с выше, чем в oбычных услoвиях.
Атмoсфернoе давление в разных тoчках местнoсти мoжет значительнo oтличаться oт давления на метеoстанции, в зависимoсти oт услoвий рельефа (при пoдъёме на 10 м давление пoнижается примернo на 1 мм рт.ст.).